422P/Christensen (2022)

Japanese version
Home page
Updated on December 18, 2022

---------------------------------------------------------------------

* Profile

Designation 422P/2021 L1
Recovery Date June 5, 2021
Magnitude 18.6 mag
Recoverer C. Jacques (Belo Horizonte, Brazil)

* Pictures

* Orbital Elements

Epoch 2022 Aug. 9.0 TT = JDT 2459800.5
T 2022 Jan. 13.63362 TT                                 Rudenko
q   3.1048972            (2000.0)            P               Q
n   0.06208411     Peri.  305.13089     +0.83622050     +0.40052436
a   6.3165860      Node    36.02459     +0.04985835     +0.62470704
e   0.5084533      Incl.   39.56175     -0.54612217     +0.67031437
P  15.9
>From 265 observations 2006 Sept. 22-2022 Nov. 3, mean residual 0".7.

* Magnitudes Graph

        m1 = 0.0 + 5 log d + 30 log r(t + 80)

---------------------------------------------------------------------

The orbital elements are published on M.P.E.C. 2022-V95.
The magnitudes graphs are made with Comet for Windows.

---------------------------------------------------------------------

Copyright(C) Seiichi Yoshida (comet@aerith.net). All rights reserved.